This is the latest recevied weather packets stored in our database for station/object KE4LOJ. If no packets are shown the sender has not sent any weather packets the latest 10 day(s).
| Time | Temp. | Humidity | Pressure | Rain* | Wind** | Luminosity | Snow |
|---|---|---|---|---|---|---|---|
| 1778077562 | 27.78° C | 67% | 1017.9 hPa | 0 mm | - | 536 W/m² | - |
| 1778077260 | 26.67° C | 71% | 1017.9 hPa | 0 mm | - | 515 W/m² | - |
| 1778076957 | 26.67° C | 71% | 1018 hPa | 0 mm | - | 468 W/m² | - |
| 1778076655 | 26.67° C | 72% | 1018.1 hPa | 0 mm | - | 380 W/m² | - |
| 1778076353 | 26.67° C | 74% | 1017.9 hPa | 0 mm | - | 159 W/m² | - |
| 1778076050 | 26.11° C | 75% | 1017.8 hPa | 0 mm | - | 124 W/m² | - |
| 1778075746 | 25.56° C | 76% | 1018 hPa | 0 mm | - | 131 W/m² | - |
| 1778075442 | 25.56° C | 77% | 1018 hPa | 0 mm | - | 118 W/m² | - |
| 1778075139 | 25° C | 79% | 1017.9 hPa | 0 mm | - | 181 W/m² | - |
| 1778074835 | 25.56° C | 78% | 1018.1 hPa | 0 mm | - | 135 W/m² | - |
| 1778074532 | 25° C | 79% | 1017.9 hPa | 0 mm | - | 113 W/m² | - |
| 1778074229 | 25° C | 79% | 1018 hPa | 0 mm | - | 119 W/m² | - |
| 1778073926 | 25° C | 80% | 1018 hPa | 0 mm | - | 124 W/m² | - |
| 1778073624 | 24.44° C | 81% | 1018.2 hPa | 0 mm | - | 121 W/m² | - |
| 1778073321 | 23.89° C | 82% | 1018 hPa | 0 mm | - | 133 W/m² | - |
| 1778073017 | 23.89° C | 83% | 1018.1 hPa | 0 mm | - | 97 W/m² | - |
| 1778072714 | 23.89° C | 82% | 1017.8 hPa | 0 mm | - | 120 W/m² | - |
| 1778072412 | 23.33° C | 84% | 1017.7 hPa | 0 mm | - | 125 W/m² | - |
| 1778072110 | 23.33° C | 85% | 1017.8 hPa | 0 mm | - | 103 W/m² | - |
| 1778071807 | 22.78° C | 85% | 1017.5 hPa | 0 mm | - | 93 W/m² | - |
| 1778071505 | 22.78° C | 85% | 1017.6 hPa | 0 mm | - | 81 W/m² | - |
| 1778071203 | 22.78° C | 86% | 1017.8 hPa | 0 mm | - | 92 W/m² | - |
| 1778070901 | 22.22° C | 87% | 1017.6 hPa | 0 mm | - | 84 W/m² | - |
| 1778070598 | 22.22° C | 88% | 1017.5 hPa | 0 mm | - | 71 W/m² | - |
| 1778070294 | 21.67° C | 88% | 1017.5 hPa | 0 mm | - | 68 W/m² | - |
* Rain latest hour (hover to see other rain measurements)
** Current wind speed in m/s (hover to see current wind gust speed)